Regional Weather Roundup
Issued by NWS

Home | Current Version | Previous Version | Graphics & Text | Print | Product List | Glossary On
Versions: 1 2 3 4 5 6 7 8 9 10 11 12 13 14 15 16 17 18 19 20 21 22 23 24 25 26 27
000
ASUS45 KBOU 220407
RWRCO

WEATHER ROUNDUP FOR COLORADO
NATIONAL WEATHER SERVICE DENVER/BOULDER CO
1000 PM MDT SAT OCT 21 2017

NOTE: "FAIR" INDICATES FEW OR NO CLOUDS BELOW 12000 FEET WITH NO
SIGNIFICANT WEATHER AND/OR OBSTRUCTIONS TO VISIBILITY.

COZ001>005-013-030-031-220500-
...NORTHWEST COLORADO...

CITY           SKY/WX    TMP DP  RH WIND       PRES   REMARKS
CRAIG          FAIR      29  21  72 CALM      30.29R
HAYDEN         FAIR      31  23  72 CALM      30.30R
MEEKER         FAIR      33  25  72 E5        30.31R WCI  29
RABBIT EARS PA FAIR      19  18  93 W12G24    30.26S WCI   7
STEAMBOAT SPGS FAIR      30  22  72 CALM      30.29R
WALDEN         NOT AVBL
$$

COZ006>008-011-220500-
...WEST CENTRAL VALLEYS...

CITY           SKY/WX    TMP DP  RH WIND       PRES   REMARKS
GRAND JUNCTION FAIR      40  11  30 E3        30.30R
MONTROSE       FAIR      36  15  42 SE10      30.35R
EAGLE          FAIR      30  23  75 E6        30.34R WCI  24
RIFLE          FAIR      36  22  56 E5        30.32R
DELTA          FAIR      41   8  26 NE6       30.32R
NUCLA          FAIR      36   5  27 E9        30.37R
$$

COZ017>023-064>068-220500-
...SOUTHWEST COLORADO...

CITY           SKY/WX    TMP DP  RH WIND       PRES   REMARKS
DURANGO        FAIR      41   3  20 SW9       30.27R
CORTEZ         FAIR      34  10  37 E3        30.32R
PAGOSA SPRINGS FAIR      32   4  30 CALM      30.31R
TELLURIDE      FAIR      30  16  55 SE6       30.39S WCI  24
WOLF CREEK PAS FAIR      21   0  39 SW10      30.42R WCI  10
$$

COZ009-010-012-014-032>034-037-058>063-220500-
...CENTRAL COLORADO...

CITY           SKY/WX    TMP DP  RH WIND       PRES   REMARKS
ASPEN          FAIR      27  21  78 SW6       30.33R WCI  20
BUENA VISTA    FAIR      33  12  41 W13       30.26S WCI  24
COPPER MTN     FAIR      19  12  73 MISG      30.31R
BERTHOUD PASS  FAIR      14   3  62 NW41G53   30.20S WCI -10
COTTONWOOD PAS FAIR      36   9  32 W13G30    30.28R
GUNNISON       FAIR      30  14  51 N6        30.34R WCI  24
KREMMLING      FAIR      28  21  74 CALM      30.32R
LEADVILLE      FAIR      24  10  55 N10G20    30.29R WCI  14
MONARCH PASS   FAIR      19   5  53 W32       30.41S WCI   0
SALIDA         FAIR      39   9  29 NW6       30.33R
SUNLIGHT       FAIR      19  12  73 MISG      30.38S
WILKERSON PASS FAIR      21   1  42 W9        30.28S WCI  11
$$

COZ069>075-220500-
...SAN LUIS VALLEY/SANGRE DE CRISTO MOUNTAINS...

CITY           SKY/WX    TMP DP  RH WIND       PRES   REMARKS
ALAMOSA        FAIR      27   4  37 SW6       30.28R WCI  20
DEL NORTE      FAIR      27   4  36 CALM      30.29R
LA VETA PASS   FAIR      30   1  29 SW16      30.39R WCI  19
SAGUACHE       FAIR      36  10  35 NW16G22   30.28R
$$

COZ035-036-038>040-220500-
...NORTHERN COLORADO FRONT RANGE...

CITY           SKY/WX    TMP DP  RH WIND       PRES   REMARKS
DENVER INTL AP FAIR      32  13  45 S13       30.14S WCI  22
DMNS CITY PARK   N/A     42  15  33 SE8       30.15R
AURORA         CLEAR     36  12  37 S10       30.15F
FRONT RANGE AP FAIR      32  18  55 S7        30.16S WCI  26
ERIE MUNI ARPT FAIR      42  12  29 SE10G18   30.18S
BOULDER MUN AP FAIR      39  16  38 CALM      30.13R
CENTENNIAL     FAIR      36  12  37 S10       30.16R
BROOMFIELD     CLEAR     39  12  33 W5        30.14R
FORT COLLINS   FAIR      34  18  52 SW6       30.13R WCI  29
LONGMONT       FAIR      40  15  36 CALM      30.16R HAZE
$$

COZ041-046-047-076>085-087-088-220500-
...PIKES PEAK/PALMER DIVIDE AND SOUTHERN FOOTHILLS...

CITY           SKY/WX    TMP DP  RH WIND       PRES   REMARKS
COLO. SPRINGS  FAIR      37   9  31 E7        30.19R
A. F. ACADEMY  FAIR      36   5  26 E10       30.17S
SCHRIEVER AFB  FAIR      38   9  31 N8        30.19R
CHEYENNE MTN   FAIR      40   3  21 CALM      30.13R
ELLICOTT         N/A    N/A N/A N/A NE9       30.17R
FALCON         FAIR      35   8  32 N7        30.20R WCI  29
FORT CARSON    FAIR      37   9  31 SE8       30.17R
LIMON          FAIR      25  14  63 NW5       30.16S WCI  19
MONUMENT HILL  FAIR      23  12  63 S5        30.20R WCI  17
CANON CITY     FAIR      46   9  21 NW6       30.18R
WALSENBURG     FAIR      43  12  28 SW10      30.19R
TRINIDAD       FAIR      42  25  50 W10       30.18R
$$

COZ042>045-048>051-090-091-220500-
...NORTHEAST COLORADO...

CITY           SKY/WX    TMP DP  RH WIND       PRES   REMARKS
GREELEY ARPT   NOT AVBL
AKRON          FAIR      38  15  39 NW8       30.12S
BURLINGTON     FAIR      31  18  58 W6        30.12R WCI  25
WRAY           FAIR      36  19  51 W7        30.10S
YUMA           NOT AVBL
STERLING       FAIR      39  21  48 NW10      30.11S
HOLYOKE        FAIR      43  21  42 W13       30.10S
FORT MORGAN    FAIR      40  14  35 N13       30.12S
$$

COZ086-089-092>099-220500-
...SOUTHEAST COLORADO...

CITY           SKY/WX    TMP DP  RH WIND       PRES   REMARKS
PUEBLO         FAIR      39  13  34 CALM      30.17R
LA JUNTA       FAIR      41  15  35 N7        30.15R
LAMAR          FAIR      35  13  40 SW3       30.11R
SPRINGFIELD      N/A     33  19  56 NW10      30.13R WCI  25
$$




USA.gov is the U.S. government's official web portal to all federal, state and local government web resources and services.